Terminal Aerodrome Forecast
Issued by NWS Greer, SC

Home | Current Version | Previous Version | Text Only | Print | Product List | Glossary On
Versions: 1 2 3 4 5 6 7 8 9 10 11 12 13 14 15 16 17 18 19 20 21 22 23 24 25 26 27 28 29 30 31 32 33 34 35 36 37 38 39 40 41
000
FTUS42 KGSP 272338
TAFAVL
TAF
KAVL 272338Z 2800/2824 35012G18KT P6SM SCT025 BKN035 OVC045
      TEMPO 2802/2806 BKN025
     FM281000 34010KT P6SM SCT040
     FM281700 34007KT P6SM SCT090=

USA.gov is the U.S. government's official web portal to all federal, state and local government web resources and services.